| time (UTC) | temp F | wind direction | speed MPH | gust MPH | rain 1hr in | rain 24hr in | rain mn in | humidity % | barometer mb |
| 20260903041110 | 58 | 350 | 0.0 | 3.0 | 0.00 | 0.00 | 0.00 | 62 | 1021.4 |
| 20260903040110 | 58 | 350 | 0.0 | 5.0 | 0.00 | 0.00 | 0.00 | 61 | 1021.3 |
| 20260903035110 | 58 | 360 | 3.0 | 4.0 | 0.00 | 0.00 | 0.00 | 60 | 1021.2 |
| 20260903034110 | 59 | 340 | 3.0 | 4.0 | 0.00 | 0.00 | 0.00 | 59 | 1021.2 |
| 20260903033110 | 60 | 318 | 4.0 | 5.0 | 0.00 | 0.00 | 0.00 | 58 | 1021.3 |
| 20260903032110 | 60 | 333 | 3.0 | 4.0 | 0.00 | 0.00 | 0.00 | 57 | 1021.2 |
| 20260903031110 | 60 | 335 | 3.0 | 4.0 | 0.00 | 0.00 | 0.00 | 57 | 1021.2 |
| 20260903030110 | 61 | 320 | 3.0 | 5.0 | 0.00 | 0.00 | 0.00 | 57 | 1021.3 |
| 20260903025110 | 61 | 317 | 4.0 | 4.0 | 0.00 | 0.00 | 0.00 | 57 | 1021.2 |
| 20260903024110 | 61 | 316 | 4.0 | 6.0 | 0.00 | 0.00 | 0.00 | 56 | 1021.2 |
| 20260903023110 | 62 | 327 | 4.0 | 5.0 | 0.00 | 0.00 | 0.00 | 56 | 1021.3 |
| 20260903022110 | 62 | 331 | 2.0 | 4.0 | 0.00 | 0.00 | 0.00 | 55 | 1021.3 |
| 20260903021110 | 62 | 331 | 2.0 | 3.0 | 0.00 | 0.00 | 0.00 | 54 | 1021.2 |
| 20260903020110 | 63 | 331 | 2.0 | 3.0 | 0.00 | 0.00 | 0.00 | 53 | 1021.2 |
| 20260903015110 | 63 | 331 | 3.0 | 4.0 | 0.00 | 0.00 | 0.00 | 53 | 1021.3 |
| 20260903014110 | 63 | 331 | 2.0 | 3.0 | 0.00 | 0.00 | 0.00 | 51 | 1021.4 |
| 20260903013110 | 64 | 331 | 3.0 | 4.0 | 0.00 | 0.00 | 0.00 | 51 | 1021.4 |
| 20260903012110 | 64 | 332 | 4.0 | 5.0 | 0.00 | 0.00 | 0.00 | 51 | 1021.5 |
| 20260903011110 | 64 | 309 | 4.0 | 7.0 | 0.00 | 0.00 | 0.00 | 50 | 1021.5 |
| 20260903005109 | 65 | 309 | 4.0 | 4.0 | 0.00 | 0.00 | 0.00 | 49 | 1021.4 |
| 20260903004114 | 65 | 322 | 4.0 | 6.0 | 0.00 | 0.00 | 0.00 | 49 | 1021.4 |
| 20260903003114 | 65 | 327 | 4.0 | 6.0 | 0.00 | 0.00 | 0.00 | 49 | 1021.3 |
| 20260903002114 | 65 | 343 | 5.0 | 6.0 | 0.00 | 0.00 | 0.00 | 49 | 1021.4 |
| 20260903001114 | 65 | 355 | 5.0 | 6.0 | 0.00 | 0.00 | 0.00 | 49 | 1021.4 |
| 20260903000114 | 65 | 344 | 5.0 | 6.0 | 0.00 | 0.00 | 0.00 | 49 | 1021.5 |
| 20260902235114 | 65 | 355 | 4.0 | 5.0 | 0.00 | 0.00 | 0.00 | 49 | 1021.4 |
| 20260902234114 | 65 | 349 | 4.0 | 6.0 | 0.00 | 0.00 | 0.00 | 49 | 1021.3 |
| 20260902233114 | 65 | 342 | 4.0 | 5.0 | 0.00 | 0.00 | 0.00 | 49 | 1021.2 |
| 20260902232114 | 66 | 322 | 4.0 | 6.0 | 0.00 | 0.00 | 0.00 | 48 | 1021.2 |
| 20260902231114 | 66 | 355 | 4.0 | 5.0 | 0.00 | 0.00 | 0.00 | 48 | 1021.0 |
| 20260902230114 | 66 | 322 | 4.0 | 8.0 | 0.00 | 0.00 | 0.00 | 48 | 1021.0 |
| 20260902225114 | 66 | 315 | 6.0 | 8.0 | 0.00 | 0.00 | 0.00 | 49 | 1020.9 |
| 20260902224114 | 66 | 348 | 3.0 | 8.0 | 0.00 | 0.00 | 0.00 | 48 | 1020.9 |
| 20260902223114 | 66 | 329 | 4.0 | 7.0 | 0.00 | 0.00 | 0.00 | 48 | 1020.8 |
| 20260902222114 | 66 | 340 | 4.0 | 5.0 | 0.00 | 0.00 | 0.00 | 49 | 1020.7 |
| 20260902221113 | 66 | 331 | 6.0 | 8.0 | 0.00 | 0.00 | 0.00 | 50 | 1020.8 |
| 20260902220113 | 66 | 315 | 5.0 | 9.0 | 0.00 | 0.00 | 0.00 | 50 | 1020.7 |
| 20260902215113 | 66 | 333 | 6.0 | 8.0 | 0.00 | 0.00 | 0.00 | 51 | 1020.7 |
| 20260902214114 | 65 | 334 | 5.0 | 9.0 | 0.00 | 0.00 | 0.00 | 51 | 1020.6 |
| 20260902213114 | 65 | 317 | 8.0 | 10.0 | 0.00 | 0.00 | 0.00 | 53 | 1020.6 |
| 20260902212113 | 65 | 338 | 6.0 | 9.0 | 0.00 | 0.00 | 0.00 | 55 | 1020.4 |
| 20260902211113 | 64 | 340 | 4.0 | 8.0 | 0.00 | 0.00 | 0.00 | 57 | 1020.3 |
| 20260902210113 | 64 | 333 | 3.0 | 5.0 | 0.00 | 0.00 | 0.00 | 57 | 1020.2 |
| 20260902205113 | 65 | 298 | 0.0 | 1.0 | 0.00 | 0.00 | 0.00 | 57 | 1020.2 |
| 20260902204113 | 65 | 350 | 1.0 | 2.0 | 0.00 | 0.00 | 0.00 | 55 | 1020.0 |
| 20260902203113 | 66 | 350 | 2.0 | 3.0 | 0.00 | 0.00 | 0.00 | 55 | 1020.0 |
| 20260902202113 | 66 | 355 | 3.0 | 4.0 | 0.00 | 0.00 | 0.00 | 54 | 1019.8 |
| 20260902201113 | 67 | 349 | 0.0 | 3.0 | 0.00 | 0.00 | 0.00 | 53 | 1019.9 |
| 20260902200113 | 67 | 219 | 0.0 | 0.0 | 0.00 | 0.00 | 0.00 | 53 | 1019.8 |
| 20260902195113 | 67 | 219 | 0.0 | 0.0 | 0.00 | 0.00 | 0.00 | 53 | 1019.9 |
| 20260902194113 | 67 | 219 | 0.0 | 0.0 | 0.00 | 0.00 | 0.00 | 53 | 1019.9 |
| 20260902193113 | 68 | 219 | 0.0 | 0.0 | 0.00 | 0.00 | 0.00 | 50 | 1019.9 |
| 20260902192113 | 68 | 219 | 0.0 | 0.0 | 0.00 | 0.00 | 0.00 | 50 | 1020.0 |
| 20260902191113 | 69 | 219 | 0.0 | 0.0 | 0.00 | 0.00 | 0.00 | 49 | 1020.0 |
| 20260902190113 | 70 | 219 | 0.0 | 1.0 | 0.00 | 0.00 | 0.00 | 47 | 1020.0 |
| 20260902185113 | 71 | 219 | 0.0 | 0.0 | 0.00 | 0.00 | 0.00 | 45 | 1019.9 |
| 20260902184113 | 71 | 219 | 0.0 | 0.0 | 0.00 | 0.00 | 0.00 | 43 | 1019.9 |
| 20260902183113 | 72 | 219 | 0.0 | 1.0 | 0.00 | 0.00 | 0.00 | 42 | 1020.0 |
| 20260902182113 | 73 | 218 | 1.0 | 3.0 | 0.00 | 0.00 | 0.00 | 40 | 1019.9 |
| 20260902181113 | 74 | 219 | 0.0 | 2.0 | 0.00 | 0.00 | 0.00 | 39 | 1019.8 |
| 20260902180113 | 75 | 225 | 1.0 | 5.0 | 0.00 | 0.00 | 0.00 | 37 | 1019.8 |
| 20260902175112 | 76 | 182 | 0.0 | 1.0 | 0.00 | 0.00 | 0.00 | 35 | 1019.8 |
| 20260902174113 | 77 | 190 | 0.0 | 2.0 | 0.00 | 0.00 | 0.00 | 33 | 1019.6 |
| 20260902173112 | 78 | 109 | 2.0 | 4.0 | 0.00 | 0.00 | 0.00 | 30 | 1019.5 |
| 20260902172112 | 79 | 117 | 2.0 | 6.0 | 0.00 | 0.00 | 0.00 | 30 | 1019.4 |
| 20260902171113 | 80 | 96 | 4.0 | 7.0 | 0.00 | 0.00 | 0.00 | 29 | 1019.4 |
| 20260902170112 | 81 | 122 | 3.0 | 4.0 | 0.00 | 0.00 | 0.00 | 28 | 1019.5 |
| 20260902165112 | 81 | 103 | 3.0 | 4.0 | 0.00 | 0.00 | 0.00 | 29 | 1019.6 |
| 20260902164113 | 82 | 192 | 3.0 | 6.0 | 0.00 | 0.00 | 0.00 | 29 | 1019.6 |
| 20260902163112 | 82 | 180 | 1.0 | 6.0 | 0.00 | 0.00 | 0.00 | 28 | 1019.6 |
| 20260902162112 | 83 | 223 | 1.0 | 4.0 | 0.00 | 0.00 | 0.00 | 26 | 1019.6 |
| 20260902161112 | 83 | 129 | 3.0 | 4.0 | 0.00 | 0.00 | 0.00 | 26 | 1019.6 |
| 20260902160112 | 83 | 127 | 0.0 | 2.0 | 0.00 | 0.00 | 0.00 | 26 | 1019.7 |
| 20260902155112 | 84 | 155 | 1.0 | 3.0 | 0.00 | 0.00 | 0.00 | 25 | 1019.5 |
| 20260902154112 | 84 | 171 | 1.0 | 4.0 | 0.00 | 0.00 | 0.00 | 24 | 1019.5 |
| 20260902153112 | 84 | 260 | 2.0 | 2.0 | 0.00 | 0.00 | 0.00 | 23 | 1019.6 |
| 20260902152112 | 84 | 311 | 2.0 | 6.0 | 0.00 | 0.00 | 0.00 | 25 | 1019.6 |
| 20260902151112 | 84 | 9 | 4.0 | 8.0 | 0.00 | 0.00 | 0.00 | 24 | 1019.8 |
| 20260902150112 | 84 | 291 | 4.0 | 10.0 | 0.00 | 0.00 | 0.00 | 24 | 1019.8 |
| 20260902145112 | 84 | 42 | 1.0 | 3.0 | 0.00 | 0.00 | 0.00 | 24 | 1019.8 |
| 20260902144112 | 84 | 5 | 5.0 | 8.0 | 0.00 | 0.00 | 0.00 | 22 | 1019.8 |
| 20260902143112 | 86 | 360 | 3.0 | 10.0 | 0.00 | 0.00 | 0.00 | 21 | 1019.9 |
| 20260902142112 | 86 | 332 | 1.0 | 8.0 | 0.00 | 0.00 | 0.00 | 23 | 1020.1 |
| 20260902141112 | 85 | 311 | 5.0 | 10.0 | 0.00 | 0.00 | 0.00 | 22 | 1020.2 |
| 20260902140112 | 85 | 338 | 10.0 | 12.0 | 0.00 | 0.00 | 0.00 | 22 | 1020.2 |
| 20260902135112 | 86 | 355 | 4.0 | 10.0 | 0.00 | 0.00 | 0.00 | 23 | 1020.4 |
| 20260902134112 | 86 | 254 | 2.0 | 8.0 | 0.00 | 0.00 | 0.00 | 21 | 1020.5 |
| 20260902133112 | 86 | 263 | 6.0 | 9.0 | 0.00 | 0.00 | 0.00 | 23 | 1020.5 |
| 20260902132112 | 85 | 71 | 3.0 | 8.0 | 0.00 | 0.00 | 0.00 | 24 | 1020.7 |
| 20260902131112 | 85 | 286 | 2.0 | 10.0 | 0.00 | 0.00 | 0.00 | 22 | 1020.6 |
| 20260902130112 | 84 | 285 | 5.0 | 10.0 | 0.00 | 0.00 | 0.00 | 26 | 1020.7 |
| 20260902125112 | 84 | 236 | 4.0 | 11.0 | 0.00 | 0.00 | 0.00 | 24 | 1020.8 |
| 20260902124112 | 84 | 221 | 8.0 | 15.0 | 0.00 | 0.00 | 0.00 | 27 | 1020.9 |
| 20260902123112 | 83 | 355 | 4.0 | 11.0 | 0.00 | 0.00 | 0.00 | 25 | 1020.9 |
| 20260902122111 | 84 | 350 | 6.0 | 13.0 | 0.00 | 0.00 | 0.00 | 24 | 1021.1 |
| 20260902121112 | 83 | 17 | 4.0 | 6.0 | 0.00 | 0.00 | 0.00 | 24 | 1021.3 |
| 20260902120112 | 83 | 275 | 7.0 | 11.0 | 0.00 | 0.00 | 0.00 | 26 | 1021.4 |
| 20260902115112 | 83 | 236 | 9.0 | 13.0 | 0.00 | 0.00 | 0.00 | 26 | 1021.4 |
| 20260902114112 | 84 | 179 | 5.0 | 8.0 | 0.00 | 0.00 | 0.00 | 26 | 1021.5 |
| 20260902113112 | 84 | 157 | 8.0 | 14.0 | 0.00 | 0.00 | 0.00 | 27 | 1021.7 |
| 20260902112111 | 83 | 239 | 1.0 | 7.0 | 0.00 | 0.00 | 0.00 | 27 | 1021.8 |
| 20260902111111 | 83 | 198 | 5.0 | 14.0 | 0.00 | 0.00 | 0.00 | 29 | 1021.9 |
| 20260902110111 | 82 | 189 | 6.0 | 13.0 | 0.00 | 0.00 | 0.00 | 30 | 1021.9 |
| 20260902105111 | 82 | 129 | 3.0 | 10.0 | 0.00 | 0.00 | 0.00 | 31 | 1022.2 |
| 20260902104111 | 82 | 190 | 8.0 | 11.0 | 0.00 | 0.00 | 0.00 | 31 | 1022.3 |
| 20260902103112 | 81 | 185 | 6.0 | 9.0 | 0.00 | 0.00 | 0.00 | 31 | 1022.5 |
| 20260902102112 | 81 | 209 | 7.0 | 9.0 | 0.00 | 0.00 | 0.00 | 33 | 1022.6 |
| 20260902101111 | 80 | 236 | 3.0 | 9.0 | 0.00 | 0.00 | 0.00 | 32 | 1022.5 |
| 20260902100111 | 80 | 148 | 4.0 | 9.0 | 0.00 | 0.00 | 0.00 | 33 | 1022.7 |
| 20260902095111 | 80 | 166 | 7.0 | 9.0 | 0.00 | 0.00 | 0.00 | 34 | 1022.8 |
| 20260902094111 | 79 | 199 | 3.0 | 9.0 | 0.00 | 0.00 | 0.00 | 35 | 1022.9 |
| 20260902093112 | 79 | 146 | 2.0 | 8.0 | 0.00 | 0.00 | 0.00 | 36 | 1023.0 |
| 20260902092111 | 78 | 155 | 3.0 | 10.0 | 0.00 | 0.00 | 0.00 | 38 | 1023.1 |
| 20260902091111 | 77 | 152 | 3.0 | 7.0 | 0.00 | 0.00 | 0.00 | 40 | 1023.1 |
| 20260902090111 | 75 | 180 | 6.0 | 8.0 | 0.00 | 0.00 | 0.00 | 41 | 1023.0 |
| 20260902085111 | 74 | 49 | 2.0 | 4.0 | 0.00 | 0.00 | 0.00 | 43 | 1023.1 |
| 20260902084111 | 74 | 30 | 0.0 | 4.0 | 0.00 | 0.00 | 0.00 | 43 | 1023.1 |
| 20260902083111 | 72 | 112 | 0.0 | 1.0 | 0.00 | 0.00 | 0.00 | 44 | 1023.1 |
| 20260902082111 | 71 | 12 | 0.0 | 3.0 | 0.00 | 0.00 | 0.00 | 46 | 1023.2 |
| 20260902081111 | 71 | 132 | 2.0 | 3.0 | 0.00 | 0.00 | 0.00 | 47 | 1023.2 |
| 20260902080111 | 70 | 154 | 1.0 | 2.0 | 0.00 | 0.00 | 0.00 | 48 | 1023.2 |
| 20260902075111 | 69 | 154 | 0.0 | 0.0 | 0.00 | 0.00 | 0.00 | 47 | 1023.2 |
| 20260902074111 | 69 | 155 | 1.0 | 2.0 | 0.00 | 0.00 | 0.00 | 50 | 1023.1 |
| 20260902073111 | 69 | 133 | 0.0 | 1.0 | 0.00 | 0.00 | 0.00 | 49 | 1023.0 |
| 20260902072111 | 68 | 134 | 0.0 | 2.0 | 0.00 | 0.00 | 0.00 | 49 | 1022.9 |
| 20260902071111 | 67 | 134 | 1.0 | 2.0 | 0.00 | 0.00 | 0.00 | 53 | 1023.3 |
| 20260902070111 | 65 | 136 | 1.0 | 3.0 | 0.00 | 0.00 | 0.00 | 55 | 1022.6 |
| 20260902065111 | 64 | 138 | 1.0 | 4.0 | 0.00 | 0.00 | 0.00 | 58 | 1022.6 |
| 20260902064111 | 62 | 297 | 0.0 | 1.0 | 0.00 | 0.00 | 0.00 | 59 | 1022.7 |
| 20260902063111 | 61 | 298 | 0.0 | 0.0 | 0.00 | 0.00 | 0.00 | 60 | 1022.7 |
| 20260902062111 | 60 | 298 | 0.0 | 0.0 | 0.00 | 0.00 | 0.00 | 61 | 1022.7 |
| 20260902061111 | 58 | 298 | 0.0 | 0.0 | 0.00 | 0.00 | 0.00 | 64 | 1022.6 |
| 20260902060111 | 58 | 298 | 0.0 | 2.0 | 0.00 | 0.00 | 0.00 | 66 | 1022.7 |
| 20260902055111 | 57 | 298 | 0.0 | 0.0 | 0.00 | 0.00 | 0.00 | 66 | 1022.7 |
| 20260902054110 | 57 | 298 | 0.0 | 2.0 | 0.00 | 0.00 | 0.00 | 66 | 1022.7 |
| 20260902053111 | 57 | 35 | 2.0 | 3.0 | 0.00 | 0.00 | 0.00 | 67 | 1022.7 |
| 20260902052111 | 56 | 323 | 1.0 | 3.0 | 0.00 | 0.00 | 0.00 | 68 | 1022.7 |
| 20260902051111 | 56 | 319 | 0.0 | 0.0 | 0.00 | 0.00 | 0.00 | 68 | 1022.6 |
| 20260902050110 | 56 | 319 | 0.0 | 0.0 | 0.00 | 0.00 | 0.00 | 68 | 1022.5 |
| 20260902045111 | 56 | 319 | 0.0 | 0.0 | 0.00 | 0.00 | 0.00 | 68 | 1022.6 |
| 20260902044110 | 56 | 319 | 0.0 | 0.0 | 0.00 | 0.00 | 0.00 | 68 | 1022.7 |
| 20260902043110 | 56 | 319 | 0.0 | 0.0 | 0.00 | 0.00 | 0.00 | 68 | 1022.5 |
| 20260902042110 | 55 | 319 | 0.0 | 0.0 | 0.00 | 0.00 | 0.00 | 68 | 1022.7 |